Regional Weather Roundup
Issued by NWS

Home | Current Version | Previous Version | Graphics & Text | Print | Product List | Glossary On
Versions: 1 2 3 4 5 6 7 8 9 10 11 12 13 14 15 16 17 18 19 20 21 22 23 24 25 26 27 28 29 30 31 32 33 34 35 36 37 38 39 40 41 42 43 44 45 46 47 48 49 50
000
ASUS44 KMEG 190310
RWRTN
TENNESSEE HOURLY STATE WEATHER ROUNDUP
NATIONAL WEATHER SERVICE MEMPHIS TN
1000 PM CDT THU SEP 18 2014

TNZ002-004-019-021-049-052-054-088>092-190400-
WEST TENNESSEE

CITY           SKY/WX    TMP DP  RH WIND       PRES   REMARKS
MEMPHIS INTL   PTCLDY    73  65  75 E9        29.99S
NWS MEMPHIS      N/A     70 N/A N/A MISG        N/A
JACKSON        CLOUDY    68  63  84 CALM      30.01R
DYERSBURG      MOCLDY    64  54  68 CALM      30.03R
UNION CITY     CLEAR     57  57 100 CALM      30.02R
PARIS          CLEAR     57  55  94 NE3       30.03S
HUNTINGDON     PTCLDY    60  58  93 CALM      30.02S
LEXINGTON      CLEAR     64  61  88 N5        30.01R
SAVANNAH       CLOUDY    66  66 100 CALM      30.02R
$$

TNZ008-025-027-028-033-062-065-066-190400-
NORTH MIDDLE TENNESSEE

CITY           SKY/WX    TMP DP  RH WIND       PRES   REMARKS
NASHVILLE      CLEAR     66  61  84 NE5       30.03S
DICKSON        CLEAR     64  57  77 NE3       30.03R
PORTLAND       CLEAR     61  57  88 CALM      30.04R
CLARKSVILLE    CLEAR     64  56  75 NE5       30.04R
LEBANON        CLEAR     62  60  93 CALM      30.02S
SMYRNA         PTCLDY    63  60  90 CALM      30.04R
MURFREESBORO   CLEAR     65  60  83 CALM      30.02S
COOKEVILLE     CLEAR     59  57  94 CALM      30.04S
LIVINGSTON     PTCLDY    62  58  87 NE3       30.07R
GALLATIN       PTCLDY    65  61  87 NE3       30.05R
CROSSVILLE     PTCLDY    63  57  81 CALM      30.09R
$$

TNZ061-075-076-078-094-096-097-190400-
SOUTH MIDDLE TENNESSEE

CITY           SKY/WX    TMP DP  RH WIND       PRES   REMARKS
LEWISBURG      CLEAR     62  60  93 CALM      30.02R
FAYETTEVILLE   CLEAR     64  57  77 NE7       30.02S
TULLAHOMA      CLEAR     66  57  72 NE3       30.04S
WINCHESTER     CLEAR     63  59  88 CALM      30.03R
MCMINNVILLE    CLEAR     63  63 100 CALM      30.04S
COLUMBIA       CLEAR     63  63 100 CALM      30.01R
SHELBYVILLE    CLEAR     64  61  88 CALM      30.03S
$$

TNZ017-018-042-046-047-190400-
NORTHEAST TENNESSEE

CITY           SKY/WX    TMP DP  RH WIND       PRES   REMARKS
TRI CITIES     PTCLDY    61  54  77 CALM      30.08R
ELIZABETHTON   CLEAR     55  54  94 E3        30.09S
$$

TNZ012-013-036-069-073-074-190400-
CENTRAL EAST TENNESSEE

CITY           SKY/WX    TMP DP  RH WIND       PRES   REMARKS
KNOXVILLE      MOCLDY    65  58  78 N6        30.03R
OAK RIDGE      PTCLDY    63  60  90 CALM      30.06S
GATLINBURG     CLEAR     61  57  88 CALM      30.05R
MORRISTOWN     CLEAR     63  55  77 E5        30.07S
$$

TNZ083-085-099-190400-
SOUTHEAST TENNESSEE

CITY           SKY/WX    TMP DP  RH WIND       PRES   REMARKS
CHATTANOOGA    MOCLDY    68  60  75 NW3       30.02R
$$

SKY/WX REPORTED AS FAIR MEANS FEW OR NO CLOUDS BELOW
12 THOUSAND FEET.



USA.gov is the U.S. government's official web portal to all federal, state and local government web resources and services.